[[{"header":{"parameterUnit":"m.s-1","parameterCategory":1,"la1":30.2992,"la2":30.254,"lo1":-89.0895,"lo2":-89.0443,"dy":0.0025,"dx":0.0025,"nx":19,"ny":19,"refTime":"2026-03-27T03:00:00:Z","depth":0,"parameterNumber":2,"parameterNumberName":"U-component_of_WINDS"},"data":[0,0,0,1.7412,1.7411,1.7326,1.7326,1.7235,1.7234,0,0,0,0,0,0,0,0,0,0,0,1.7445,1.7445,1.7412,1.741,1.7326,1.7326,1.7235,1.7234,0,0,0,0,0,0,0,0,0,0,0,1.7445,1.7445,1.7444,1.741,1.7326,1.7326,1.7235,1.7293,0,0,0,0,0,0,0,0,0,0,1.7372,1.741,1.7445,1.7444,1.741,1.7326,1.7326,1.7296,1.729,1.728,0,1.7271,0,1.7251,1.7229,1.7229,0,0,0,1.7405,1.7415,1.7385,1.7444,1.7409,1.7326,1.7363,1.7292,1.7285,1.7271,1.7269,1.7265,1.7249,1.7228,1.7228,1.7186,1.7186,0,0,1.7409,1.7434,1.739,1.7381,1.7393,1.7365,1.736,1.7288,1.7288,1.7269,1.7263,1.7248,1.7228,1.7227,1.7185,1.7186,0,0,0,1.7427,1.7438,1.7409,1.7385,1.7369,1.7363,1.7357,1.7291,1.7279,1.7262,1.7247,1.7227,1.7226,1.7185,1.7185,1.7213,0,0,0,1.7429,1.7448,1.7412,1.7426,1.737,1.7328,1.7362,1.7284,1.7275,1.7247,1.7227,1.7226,1.7185,1.7185,1.7212,1.7221,0,0,0,1.7448,1.745,1.744,1.7428,1.7392,1.7329,1.7313,1.7282,1.7266,1.7228,1.7225,1.7185,1.7185,1.7211,1.722,1.7218,0,0,0,1.7475,1.7465,1.7441,1.7424,1.7393,1.7346,1.7313,1.7277,1.7247,1.7227,1.7185,1.7185,1.721,1.7219,1.7218,1.7222,1.7225,0,0,1.7476,1.7466,1.7454,1.743,1.7394,1.7357,1.7324,1.7274,1.7249,1.7209,1.7207,1.7212,1.722,1.7218,1.7238,1.7241,0,0,0,1.7463,1.7455,1.744,1.7413,1.7374,1.7343,1.7295,1.7277,1.7242,1.7232,1.721,1.7214,1.7212,1.7213,1.7216,1.7213,1.7187,1.7187,1.7187,1.7499,1.7467,1.7447,1.7405,1.738,1.7332,1.7309,1.7277,1.7251,1.7247,1.7235,1.7251,1.7252,1.7254,1.7252,1.7234,1.7234,1.7234,1.7234,1.7498,1.7483,1.7451,1.7419,1.7387,1.736,1.7315,1.7299,1.7271,1.7256,1.7253,1.724,1.7259,1.7255,1.7236,1.7236,1.7236,1.7236,1.7235,1.7519,1.7506,1.7484,1.7444,1.7417,1.7376,1.7352,1.7322,1.7295,1.7292,1.7277,1.7277,1.7273,1.7287,1.7287,1.7287,1.7287,1.7287,1.7287,1.7548,1.7523,1.7505,1.7466,1.7446,1.7417,1.7371,1.7352,1.7323,1.7304,1.7304,1.728,1.7266,1.7264,1.7288,1.7288,1.7288,1.7288,1.7288,1.7559,1.7553,1.7525,1.7505,1.7458,1.7435,1.7399,1.7363,1.7343,1.7332,1.731,1.7304,1.7292,1.729,1.7287,1.7316,1.7316,1.7316,1.7316,1.7576,1.7568,1.7534,1.7506,1.7474,1.744,1.7413,1.7379,1.7343,1.7329,1.7321,1.7316,1.7315,1.7303,1.73,1.7298,1.7328,1.7328,1.7328,1.7582,1.7569,1.755,1.7514,1.7477,1.7446,1.742,1.739,1.7348,1.7328,1.7318,1.7318,1.7309,1.7307,1.7286,1.7283,1.7278,0,0]},{"header":{"parameterUnit":"m.s-1","parameterCategory":1,"la1":30.2992,"la2":30.254,"lo1":-89.0895,"lo2":-89.0443,"dy":0.0025,"dx":0.0025,"nx":19,"ny":19,"refTime":"2026-03-27T03:00:00:Z","depth":0,"parameterNumber":3,"parameterNumberName":"V-component_of_WINDS"},"data":[0,0,0,2.208,2.2085,2.2349,2.235,2.267,2.2673,0,0,0,0,0,0,0,0,0,0,0,2.1994,2.1996,2.2079,2.2086,2.2349,2.235,2.2669,2.2673,0,0,0,0,0,0,0,0,0,0,0,2.1993,2.1996,2.1998,2.2087,2.2348,2.235,2.2669,2.2476,0,0,0,0,0,0,0,0,0,0,2.2222,2.2137,2.1995,2.1998,2.2088,2.2348,2.235,2.2467,2.2488,2.2544,0,2.2594,0,2.2638,2.2693,2.2694,0,0,0,2.2092,2.212,2.2197,2.1998,2.209,2.2348,2.2232,2.2479,2.2502,2.2572,2.2599,2.2611,2.2643,2.2695,2.2697,2.3,2.3001,0,0,2.2077,2.2038,2.218,2.2212,2.2172,2.2223,2.224,2.2493,2.252,2.26,2.2619,2.2648,2.2697,2.2699,2.2999,2.3,0,0,0,2.2031,2.2028,2.2099,2.2198,2.2247,2.2231,2.225,2.2508,2.2535,2.2622,2.2652,2.2699,2.2703,2.2998,2.2999,2.3016,0,0,0,2.2023,2.2001,2.2092,2.2071,2.2242,2.2382,2.2259,2.2517,2.2547,2.2651,2.2699,2.2706,2.2997,2.2999,2.3013,2.3031,0,0,0,2.198,2.1996,2.2031,2.2068,2.218,2.2379,2.242,2.2525,2.2565,2.2694,2.2706,2.2996,2.2998,2.301,2.3026,2.3095,0,0,0,2.1923,2.2047,2.2031,2.218,2.2178,2.2387,2.2419,2.2577,2.269,2.27,2.2997,2.2999,2.3009,2.3024,2.3092,2.3146,2.3165,0,0,2.2057,2.2061,2.2152,2.2145,2.2346,2.235,2.2553,2.2695,2.2743,2.2911,2.2919,2.3014,2.3026,2.3095,2.3287,2.3302,0,0,0,2.2181,2.2245,2.2306,2.241,2.2519,2.2612,2.2725,2.2776,2.2919,2.2822,2.3059,2.3068,2.311,2.3137,2.315,2.3186,2.3011,2.301,2.301,2.2317,2.2368,2.2519,2.26,2.2699,2.281,2.2895,2.2982,2.301,2.3063,2.3114,2.3224,2.3255,2.3264,2.3302,2.3147,2.3147,2.3147,2.3147,2.2516,2.2614,2.2638,2.2793,2.2845,2.2975,2.3083,2.3096,2.3222,2.3193,2.3232,2.3194,2.3279,2.3314,2.3149,2.3149,2.3149,2.3148,2.3148,2.2611,2.2666,2.2723,2.2872,2.298,2.3057,2.3174,2.3218,2.3261,2.3299,2.3354,2.3354,2.3357,2.3322,2.3322,2.3323,2.3323,2.3323,2.3323,2.2687,2.275,2.2844,2.2962,2.3029,2.3124,2.323,2.3297,2.3382,2.3405,2.3406,2.3423,2.3278,2.3239,2.333,2.3329,2.3328,2.3327,2.3327,2.2869,2.2832,2.2978,2.3045,2.3183,2.3283,2.3335,2.3465,2.3527,2.3582,2.3589,2.3475,2.3484,2.3474,2.3442,2.358,2.358,2.358,2.358,2.2948,2.2954,2.3108,2.3211,2.3317,2.3375,2.3531,2.361,2.3688,2.3727,2.3713,2.3674,2.3662,2.3678,2.3664,2.3635,2.3818,2.3819,2.3819,2.3061,2.3078,2.3205,2.3278,2.3386,2.3476,2.3623,2.3736,2.3816,2.3829,2.3758,2.3748,2.3686,2.3664,2.3679,2.3656,2.3604,0,0]}]]